Tracking 30415 objects as of 16-May-2025
HD Live streaming from Space Station
objects crossing your sky now

THOR ABLESTAR DEB

Track THOR ABLESTAR DEB now!
10-day predictions


NORAD ID: 48811
Int'l Code: 1961-015MP
Perigee: 901.8 km
Apogee: 1,043.3 km
Inclination: 67.1 °
Period: 104.4 minutes
Semi major axis: 7343 km
RCS: Unknown
Launch date: June 29, 1961
Source: United States (US)
Launch site: AIR FORCE EASTERN TEST RANGE (AFETR)

Note: This is SATELLITE DEBRIS
Your satellite tracking list
Your tracking list is empty




NASA's NSSDC Master Catalog

Two Line Element Set (TLE):
1 48811U 61015MP  25133.87098533  .00000242  00000-0  29438-3 0  9999
2 48811  67.0603 220.8492 0096362  77.5882 283.5957 13.79569472577546
Source of the keplerian elements: AFSPC